| time (UTC) | temp F | wind direction | speed MPH | gust MPH | rain 1hr in | rain 24hr in | rain mn in | humidity % | barometer mb |
| 20260508050603 | 45 | 196 | 1.0 | 3.0 | 0.00 | 0.00 | 0.00 | 78 | 1015.6 |
| 20260508045523 | 46 | 0.0 | 0.0 | 0.00 | 0.00 | 0.00 | 76 | 1015.6 | |
| 20260508044523 | 47 | 0.0 | 0.0 | 0.00 | 0.00 | 0.00 | 75 | 1015.6 | |
| 20260508043523 | 47 | 199 | 3.0 | 3.0 | 0.00 | 0.00 | 0.00 | 75 | 1015.6 |
| 20260508042523 | 47 | 190 | 3.0 | 4.0 | 0.00 | 0.00 | 0.00 | 75 | 1015.6 |
| 20260508041603 | 46 | 205 | 2.0 | 3.0 | 0.00 | 0.00 | 0.00 | 77 | 1015.7 |
| 20260508040523 | 46 | 205 | 2.0 | 3.0 | 0.00 | 0.00 | 0.00 | 80 | 1015.6 |
| 20260508035523 | 46 | 220 | 1.0 | 3.0 | 0.00 | 0.00 | 0.00 | 79 | 1015.6 |
| 20260508034523 | 46 | 195 | 2.0 | 3.0 | 0.00 | 0.00 | 0.00 | 78 | 1015.7 |
| 20260508033543 | 46 | 216 | 2.0 | 3.0 | 0.00 | 0.00 | 0.00 | 80 | 1015.7 |
| 20260508032604 | 46 | 195 | 3.0 | 3.0 | 0.00 | 0.00 | 0.00 | 78 | 1015.6 |
| 20260508031523 | 46 | 199 | 2.0 | 3.0 | 0.00 | 0.00 | 0.00 | 79 | 1015.8 |
| 20260508030523 | 46 | 209 | 3.0 | 4.0 | 0.00 | 0.00 | 0.00 | 80 | 1015.7 |
| 20260508025523 | 45 | 221 | 2.0 | 3.0 | 0.00 | 0.00 | 0.00 | 84 | 1015.6 |
| 20260508024523 | 45 | 230 | 1.0 | 2.0 | 0.00 | 0.00 | 0.00 | 84 | 1015.6 |
| 20260508023524 | 46 | 0.0 | 0.0 | 0.00 | 0.00 | 0.00 | 82 | 1015.5 | |
| 20260508022523 | 46 | 233 | 1.0 | 2.0 | 0.00 | 0.00 | 0.00 | 83 | 1015.3 |
| 20260508021603 | 46 | 0.0 | 0.0 | 0.00 | 0.00 | 0.00 | 80 | 1015.3 | |
| 20260508020524 | 47 | 0.0 | 0.0 | 0.00 | 0.00 | 0.00 | 79 | 1015.3 | |
| 20260508015523 | 47 | 0.0 | 0.0 | 0.00 | 0.00 | 0.00 | 77 | 1015.2 | |
| 20260508014524 | 48 | 0.0 | 0.0 | 0.00 | 0.00 | 0.00 | 76 | 1015.2 | |
| 20260508013523 | 49 | 0.0 | 0.0 | 0.00 | 0.00 | 0.00 | 76 | 1015.1 | |
| 20260508012524 | 49 | 0.0 | 0.0 | 0.00 | 0.00 | 0.00 | 74 | 1015.1 | |
| 20260508011604 | 49 | 0.0 | 0.0 | 0.00 | 0.00 | 0.00 | 73 | 1015.0 | |
| 20260508010524 | 50 | 0.0 | 0.0 | 0.00 | 0.00 | 0.00 | 69 | 1015.0 | |
| 20260508005523 | 52 | 0.0 | 0.0 | 0.00 | 0.00 | 0.00 | 66 | 1014.9 | |
| 20260508004544 | 53 | 0.0 | 0.0 | 0.00 | 0.00 | 0.00 | 67 | 1014.9 | |
| 20260508003523 | 54 | 0.0 | 0.0 | 0.00 | 0.00 | 0.00 | 60 | 1014.9 | |
| 20260508002524 | 54 | 0.0 | 0.0 | 0.00 | 0.00 | 0.00 | 56 | 1014.9 | |
| 20260508001543 | 55 | 205 | 0.0 | 1.0 | 0.00 | 0.00 | 0.00 | 58 | 1014.8 |
| 20260508000604 | 57 | 0.0 | 0.0 | 0.00 | 0.00 | 0.00 | 53 | 1014.7 | |
| 20260507235524 | 58 | 209 | 1.0 | 3.0 | 0.00 | 0.00 | 0.00 | 46 | 1014.7 |
| 20260507234523 | 58 | 188 | 3.0 | 4.0 | 0.00 | 0.00 | 0.00 | 43 | 1014.7 |
| 20260507233524 | 60 | 180 | 4.0 | 7.0 | 0.00 | 0.00 | 0.00 | 41 | 1014.7 |
| 20260507232524 | 61 | 214 | 3.0 | 5.0 | 0.00 | 0.00 | 0.00 | 39 | 1014.7 |
| 20260507231524 | 62 | 205 | 3.0 | 4.0 | 0.00 | 0.00 | 0.00 | 40 | 1014.8 |
| 20260507230524 | 62 | 277 | 1.0 | 3.0 | 0.00 | 0.00 | 0.00 | 37 | 1014.8 |
| 20260507225523 | 61 | 295 | 1.0 | 3.0 | 0.00 | 0.00 | 0.00 | 37 | 1014.8 |
| 20260507224524 | 62 | 233 | 5.0 | 10.0 | 0.00 | 0.00 | 0.00 | 37 | 1014.9 |
| 20260507223524 | 64 | 225 | 5.0 | 7.0 | 0.00 | 0.00 | 0.00 | 37 | 1014.9 |
| 20260507222523 | 65 | 332 | 3.0 | 6.0 | 0.00 | 0.00 | 0.00 | 34 | 1014.9 |
| 20260507221524 | 65 | 229 | 2.0 | 4.0 | 0.00 | 0.00 | 0.00 | 32 | 1014.9 |
| 20260507220524 | 64 | 319 | 2.0 | 4.0 | 0.00 | 0.00 | 0.00 | 34 | 1014.8 |
| 20260507215524 | 64 | 286 | 3.0 | 9.0 | 0.00 | 0.00 | 0.00 | 35 | 1014.8 |
| 20260507214524 | 63 | 228 | 3.0 | 6.0 | 0.00 | 0.00 | 0.00 | 36 | 1014.7 |
| 20260507213524 | 64 | 263 | 4.0 | 6.0 | 0.00 | 0.00 | 0.00 | 34 | 1014.9 |
| 20260507212524 | 64 | 227 | 4.0 | 7.0 | 0.00 | 0.00 | 0.00 | 36 | 1015.0 |
| 20260507211524 | 63 | 234 | 4.0 | 8.0 | 0.00 | 0.00 | 0.00 | 36 | 1015.2 |
| 20260507210524 | 63 | 275 | 4.0 | 7.0 | 0.00 | 0.00 | 0.00 | 37 | 1015.2 |
| 20260507205524 | 61 | 207 | 5.0 | 8.0 | 0.00 | 0.00 | 0.00 | 40 | 1015.2 |
| 20260507204604 | 62 | 258 | 6.0 | 9.0 | 0.00 | 0.00 | 0.00 | 38 | 1015.2 |
| 20260507203524 | 62 | 241 | 4.0 | 8.0 | 0.00 | 0.00 | 0.00 | 37 | 1015.2 |
| 20260507202524 | 63 | 5 | 6.0 | 8.0 | 0.00 | 0.00 | 0.00 | 39 | 1015.3 |
| 20260507201524 | 63 | 8 | 5.0 | 10.0 | 0.00 | 0.00 | 0.00 | 37 | 1015.4 |
| 20260507200524 | 62 | 119 | 3.0 | 5.0 | 0.00 | 0.00 | 0.00 | 37 | 1015.4 |
| 20260507195524 | 60 | 7 | 6.0 | 11.0 | 0.00 | 0.00 | 0.00 | 39 | 1015.5 |
| 20260507194524 | 62 | 281 | 4.0 | 9.0 | 0.00 | 0.00 | 0.00 | 39 | 1015.6 |
| 20260507193524 | 62 | 11 | 3.0 | 8.0 | 0.00 | 0.00 | 0.00 | 39 | 1015.6 |
| 20260507192645 | 63 | 214 | 4.0 | 8.0 | 0.00 | 0.00 | 0.00 | 39 | 1015.7 |
| 20260507191524 | 62 | 13 | 5.0 | 10.0 | 0.00 | 0.00 | 0.00 | 40 | 1015.7 |
| 20260507190524 | 60 | 7 | 6.0 | 13.0 | 0.00 | 0.00 | 0.00 | 40 | 1015.7 |
| 20260507185524 | 61 | 346 | 5.0 | 8.0 | 0.00 | 0.00 | 0.00 | 38 | 1015.8 |
| 20260507184544 | 61 | 263 | 5.0 | 9.0 | 0.00 | 0.00 | 0.00 | 41 | 1015.8 |
| 20260507183524 | 62 | 9 | 6.0 | 9.0 | 0.00 | 0.00 | 0.00 | 39 | 1015.8 |
| 20260507182524 | 63 | 84 | 3.0 | 6.0 | 0.00 | 0.00 | 0.00 | 39 | 1015.9 |
| 20260507181524 | 61 | 332 | 4.0 | 8.0 | 0.00 | 0.00 | 0.00 | 41 | 1015.8 |
| 20260507180544 | 60 | 358 | 5.0 | 11.0 | 0.00 | 0.00 | 0.00 | 40 | 1016.2 |
| 20260507175525 | 60 | 5 | 6.0 | 11.0 | 0.00 | 0.00 | 0.00 | 42 | 1016.1 |
| 20260507174524 | 59 | 1 | 5.0 | 9.0 | 0.00 | 0.00 | 0.00 | 43 | 1016.2 |
| 20260507173524 | 60 | 352 | 7.0 | 12.0 | 0.00 | 0.00 | 0.00 | 40 | 1016.4 |
| 20260507172524 | 60 | 354 | 4.0 | 8.0 | 0.00 | 0.00 | 0.00 | 41 | 1016.6 |
| 20260507171524 | 59 | 354 | 6.0 | 10.0 | 0.00 | 0.00 | 0.00 | 42 | 1016.7 |
| 20260507170525 | 59 | 250 | 3.0 | 6.0 | 0.00 | 0.00 | 0.00 | 40 | 1016.8 |
| 20260507165524 | 59 | 357 | 6.0 | 14.0 | 0.00 | 0.00 | 0.00 | 42 | 1016.9 |
| 20260507164525 | 59 | 278 | 4.0 | 7.0 | 0.00 | 0.00 | 0.00 | 42 | 1016.9 |
| 20260507163545 | 57 | 7 | 5.0 | 10.0 | 0.00 | 0.00 | 0.00 | 43 | 1017.0 |
| 20260507162524 | 57 | 343 | 6.0 | 10.0 | 0.00 | 0.00 | 0.00 | 44 | 1017.0 |
| 20260507161545 | 59 | 326 | 5.0 | 12.0 | 0.00 | 0.00 | 0.00 | 42 | 1017.0 |
| 20260507160525 | 57 | 5 | 6.0 | 11.0 | 0.00 | 0.00 | 0.00 | 43 | 1017.0 |
| 20260507155526 | 59 | 327 | 5.0 | 9.0 | 0.00 | 0.00 | 0.00 | 42 | 1017.0 |
| 20260507154605 | 59 | 291 | 4.0 | 7.0 | 0.00 | 0.00 | 0.00 | 41 | 1017.0 |
| 20260507153524 | 58 | 6 | 5.0 | 16.0 | 0.00 | 0.00 | 0.00 | 42 | 1017.1 |
| 20260507152525 | 57 | 241 | 5.0 | 8.0 | 0.00 | 0.00 | 0.00 | 41 | 1017.1 |
| 20260507151525 | 57 | 296 | 5.0 | 10.0 | 0.00 | 0.00 | 0.00 | 41 | 1017.1 |
| 20260507150525 | 56 | 346 | 4.0 | 8.0 | 0.00 | 0.00 | 0.00 | 45 | 1017.0 |
| 20260507145525 | 57 | 9 | 5.0 | 11.0 | 0.00 | 0.00 | 0.00 | 44 | 1017.0 |
| 20260507144525 | 56 | 9 | 4.0 | 7.0 | 0.00 | 0.00 | 0.00 | 45 | 1017.0 |
| 20260507143524 | 55 | 350 | 5.0 | 8.0 | 0.00 | 0.00 | 0.00 | 46 | 1017.0 |
| 20260507142545 | 56 | 323 | 4.0 | 9.0 | 0.00 | 0.00 | 0.00 | 45 | 1017.0 |
| 20260507141525 | 55 | 346 | 5.0 | 8.0 | 0.00 | 0.00 | 0.00 | 44 | 1017.0 |
| 20260507140546 | 55 | 353 | 4.0 | 9.0 | 0.00 | 0.00 | 0.00 | 45 | 1016.9 |
| 20260507135525 | 55 | 321 | 5.0 | 8.0 | 0.00 | 0.00 | 0.00 | 45 | 1017.0 |
| 20260507134525 | 54 | 277 | 3.0 | 6.0 | 0.00 | 0.00 | 0.00 | 48 | 1016.9 |
| 20260507133525 | 55 | 235 | 3.0 | 5.0 | 0.00 | 0.00 | 0.00 | 51 | 1016.9 |
| 20260507132605 | 54 | 245 | 2.0 | 4.0 | 0.00 | 0.00 | 0.00 | 55 | 1017.0 |
| 20260507131525 | 54 | 288 | 2.0 | 4.0 | 0.00 | 0.00 | 0.00 | 57 | 1016.9 |
| 20260507130525 | 54 | 274 | 1.0 | 3.0 | 0.00 | 0.00 | 0.00 | 59 | 1016.9 |
| 20260507125525 | 52 | 271 | 1.0 | 3.0 | 0.00 | 0.00 | 0.00 | 62 | 1016.9 |
| 20260507124525 | 52 | 5 | 2.0 | 5.0 | 0.00 | 0.00 | 0.00 | 64 | 1016.9 |
| 20260507123525 | 49 | 257 | 0.0 | 2.0 | 0.00 | 0.00 | 0.00 | 73 | 1016.8 |
| 20260507122525 | 47 | 0.0 | 0.0 | 0.00 | 0.00 | 0.00 | 90 | 1016.8 | |
| 20260507121525 | 46 | 0.0 | 0.0 | 0.00 | 0.00 | 0.00 | 95 | 1016.8 | |
| 20260507120626 | 44 | 0.0 | 0.0 | 0.00 | 0.00 | 0.00 | 95 | 1016.7 | |
| 20260507115525 | 42 | 0.0 | 0.0 | 0.00 | 0.00 | 0.00 | 95 | 1016.7 | |
| 20260507114525 | 40 | 0.0 | 0.0 | 0.00 | 0.00 | 0.00 | 95 | 1016.7 | |
| 20260507113525 | 38 | 0.0 | 0.0 | 0.00 | 0.00 | 0.00 | 96 | 1016.7 | |
| 20260507112525 | 36 | 0.0 | 0.0 | 0.00 | 0.00 | 0.00 | 96 | 1016.7 | |
| 20260507111525 | 36 | 0.0 | 0.0 | 0.00 | 0.00 | 0.00 | 96 | 1016.6 | |
| 20260507110525 | 36 | 0.0 | 0.0 | 0.00 | 0.00 | 0.00 | 96 | 1016.7 | |
| 20260507105525 | 36 | 0.0 | 0.0 | 0.00 | 0.00 | 0.00 | 96 | 1016.6 | |
| 20260507104526 | 36 | 0.0 | 0.0 | 0.00 | 0.00 | 0.00 | 96 | 1016.5 | |
| 20260507103525 | 36 | 0.0 | 0.0 | 0.00 | 0.00 | 0.00 | 96 | 1016.4 | |
| 20260507102525 | 36 | 0.0 | 0.0 | 0.00 | 0.00 | 0.00 | 96 | 1016.3 | |
| 20260507101546 | 37 | 0.0 | 0.0 | 0.00 | 0.00 | 0.00 | 96 | 1016.3 | |
| 20260507100525 | 37 | 0.0 | 0.0 | 0.00 | 0.00 | 0.00 | 96 | 1016.2 | |
| 20260507095525 | 37 | 0.0 | 0.0 | 0.00 | 0.00 | 0.00 | 96 | 1016.3 | |
| 20260507094525 | 37 | 0.0 | 0.0 | 0.00 | 0.00 | 0.00 | 96 | 1016.3 | |
| 20260507093526 | 38 | 0.0 | 0.0 | 0.00 | 0.00 | 0.00 | 96 | 1016.2 | |
| 20260507092525 | 38 | 0.0 | 0.0 | 0.00 | 0.00 | 0.00 | 96 | 1016.3 | |
| 20260507091525 | 38 | 0.0 | 0.0 | 0.00 | 0.00 | 0.00 | 96 | 1016.3 | |
| 20260507090525 | 39 | 0.0 | 0.0 | 0.00 | 0.00 | 0.00 | 96 | 1016.3 | |
| 20260507085525 | 39 | 0.0 | 0.0 | 0.00 | 0.00 | 0.00 | 96 | 1016.2 | |
| 20260507084526 | 39 | 0.0 | 0.0 | 0.00 | 0.00 | 0.00 | 97 | 1016.2 | |
| 20260507083526 | 39 | 0.0 | 0.0 | 0.00 | 0.00 | 0.00 | 97 | 1016.1 | |
| 20260507082525 | 39 | 0.0 | 0.0 | 0.00 | 0.00 | 0.00 | 96 | 1015.9 | |
| 20260507081526 | 40 | 284 | 0.0 | 1.0 | 0.00 | 0.01 | 0.00 | 97 | 1015.9 |
| 20260507080526 | 40 | 0.0 | 0.0 | 0.00 | 0.01 | 0.00 | 96 | 1015.9 | |
| 20260507075546 | 40 | 344 | 0.0 | 2.0 | 0.00 | 0.01 | 0.00 | 97 | 1015.8 |
| 20260507074526 | 40 | 17 | 1.0 | 2.0 | 0.00 | 0.01 | 0.00 | 97 | 1015.8 |
| 20260507073525 | 40 | 7 | 0.0 | 3.0 | 0.00 | 0.01 | 0.00 | 97 | 1015.9 |
| 20260507072525 | 40 | 296 | 0.0 | 2.0 | 0.00 | 0.01 | 0.00 | 96 | 1015.9 |
| 20260507071607 | 40 | 0.0 | 0.0 | 0.00 | 0.01 | 0.00 | 96 | 1015.8 | |
| 20260507070525 | 40 | 0.0 | 0.0 | 0.00 | 0.01 | 0.00 | 96 | 1015.8 | |
| 20260507065525 | 40 | 0.0 | 0.0 | 0.00 | 0.03 | 0.00 | 96 | 1015.8 | |
| 20260507064606 | 40 | 0.0 | 0.0 | 0.00 | 0.03 | 0.00 | 96 | 1015.9 | |
| 20260507063545 | 40 | 0.0 | 0.0 | 0.00 | 0.05 | 0.00 | 96 | 1015.9 | |
| 20260507062526 | 40 | 0.0 | 0.0 | 0.00 | 0.06 | 0.00 | 96 | 1016.0 | |
| 20260507061626 | 40 | 0.0 | 0.0 | 0.00 | 0.09 | 0.00 | 95 | 1016.1 | |
| 20260507060525 | 40 | 0.0 | 0.0 | 0.00 | 0.09 | 0.00 | 95 | 1016.1 | |
| 20260507055526 | 40 | 0.0 | 0.0 | 0.00 | 0.09 | 0.00 | 95 | 1016.1 | |
| 20260507054526 | 40 | 0.0 | 0.0 | 0.00 | 0.09 | 0.00 | 95 | 1016.1 | |
| 20260507053525 | 41 | 0.0 | 0.0 | 0.00 | 0.09 | 0.00 | 95 | 1016.2 | |
| 20260507052526 | 41 | 0.0 | 0.0 | 0.00 | 0.10 | 0.00 | 95 | 1016.1 | |
| 20260507051525 | 41 | 0.0 | 0.0 | 0.00 | 0.11 | 0.00 | 94 | 1016.0 |